• En España
  • Lista de países
  • Para 7 días
  • Temperatura del agua
  • Mapa Satelital
  • El tiempo en el mapa
  • Informadores
  • user-avatar
    Iniciar sesión

    Tiempo cada hora Djelfa

    Hoy, 23 Mayo, Miércoles

    Tiempo Temperatura Precipitaciones Viento Presión Humedad
    00:00 +18°C° 0 mm 1 mps 665 mmHg 39%
    01:00 +18°C° 0 mm 1 mps 665 mmHg 40%
    02:00 +18°C° 0 mm 1 mps 665 mmHg 41%
    03:00 +16°C° 0 mm 1 mps 665 mmHg 42%
    04:00 +18°C° 0 mm 1 mps 665 mmHg 40%
    05:00 +18°C° 0 mm 1 mps 666 mmHg 38%
    06:00 +19°C° 0 mm 1 mps 666 mmHg 36%
    07:00 +20°C° 0 mm 2 mps 666 mmHg 32%
    08:00 +21°C° 0 mm 3 mps 667 mmHg 28%
    09:00 +23°C° 0 mm 4 mps 668 mmHg 24%
    10:00 +25°C° 0 mm 4 mps 668 mmHg 23%
    11:00 +26°C° 0 mm 4 mps 668 mmHg 22%
    12:00 +27°C° 0 mm 5 mps 668 mmHg 22%
    13:00 +27°C° 0 mm 4 mps 668 mmHg 21%
    14:00 +28°C° 0 mm 4 mps 667 mmHg 20%
    15:00 +28°C° 0 mm 4 mps 667 mmHg 20%
    16:00 +28°C° 0 mm 4 mps 667 mmHg 20%
    17:00 +28°C° 0 mm 4 mps 667 mmHg 20%
    18:00 +28°C° 0 mm 4 mps 667 mmHg 20%
    19:00 +27°C° 0 mm 5 mps 667 mmHg 23%
    20:00 +26°C° 0 mm 5 mps 667 mmHg 25%
    21:00 +23°C° 0 mm 5 mps 667 mmHg 28%
    22:00 +23°C° 0 mm 6 mps 667 mmHg 31%
    23:00 +22°C° 0 mm 6 mps 667 mmHg 33%

    Mañana, 24 Mayo, Jueves

    Tiempo Temperatura Precipitaciones Viento Presión Humedad
    00:00 +21°C° 0 mm 7 mps 667 mmHg 36%
    01:00 +21°C° 0 mm 6 mps 666 mmHg 38%
    02:00 +20°C° 0 mm 6 mps 666 mmHg 40%
    03:00 +20°C° 0 mm 5 mps 666 mmHg 42%
    04:00 +20°C° 0 mm 5 mps 666 mmHg 41%
    05:00 +20°C° 0 mm 6 mps 666 mmHg 41%
    06:00 +20°C° 0 mm 6 mps 666 mmHg 41%
    07:00 +22°C° 0 mm 7 mps 667 mmHg 37%
    08:00 +23°C° 0 mm 8 mps 667 mmHg 33%
    09:00 +26°C° 0 mm 10 mps 668 mmHg 28%
    10:00 +27°C° 0 mm 10 mps 668 mmHg 26%
    11:00 +28°C° 0 mm 10 mps 668 mmHg 24%
    12:00 +29°C° 0 mm 10 mps 668 mmHg 21%
    13:00 +29°C° 0 mm 10 mps 667 mmHg 20%
    14:00 +31°C° 0 mm 10 mps 667 mmHg 19%
    15:00 +31°C° 0 mm 10 mps 666 mmHg 18%
    16:00 +31°C° 0 mm 9 mps 666 mmHg 19%
    17:00 +29°C° 0 mm 9 mps 666 mmHg 19%
    18:00 +29°C° 0 mm 9 mps 665 mmHg 20%
    19:00 +28°C° 0 mm 9 mps 665 mmHg 23%
    20:00 +26°C° 0 mm 10 mps 665 mmHg 26%
    21:00 +24°C° 0 mm 10 mps 665 mmHg 28%
    22:00 +23°C° 0 mm 10 mps 665 mmHg 30%
    23:00 +23°C° 0 mm 9 mps 665 mmHg 31%

    Pasado mañana, 25 Mayo, Viernes

    Tiempo Temperatura Precipitaciones Viento Presión Humedad
    00:00 +22°C° 0 mm 9 mps 665 mmHg 32%
    01:00 +22°C° 0 mm 9 mps 665 mmHg 32%
    02:00 +21°C° 0 mm 8 mps 664 mmHg 33%
    03:00 +21°C° 0 mm 8 mps 664 mmHg 33%
    04:00 +21°C° 0 mm 8 mps 664 mmHg 33%
    05:00 +21°C° 0 mm 8 mps 664 mmHg 33%
    06:00 +21°C° 0 mm 8 mps 665 mmHg 32%
    07:00 +23°C° 0 mm 8 mps 665 mmHg 29%
    08:00 +26°C° 0 mm 9 mps 665 mmHg 26%
    09:00 +27°C° 0 mm 9 mps 666 mmHg 22%
    10:00 +29°C° 0 mm 9 mps 666 mmHg 20%
    11:00 +31°C° 0 mm 9 mps 666 mmHg 18%
    12:00 +32°C° 0 mm 9 mps 666 mmHg 16%
    13:00 +33°C° 0 mm 9 mps 666 mmHg 15%
    14:00 +33°C° 0 mm 8 mps 665 mmHg 13%
    15:00 +34°C° 0 mm 8 mps 665 mmHg 12%
    16:00 +34°C° 0 mm 7 mps 665 mmHg 11%
    17:00 +33°C° 0 mm 6 mps 665 mmHg 11%
    18:00 +33°C° 0 mm 5 mps 664 mmHg 11%
    19:00 +32°C° 0 mm 5 mps 665 mmHg 13%
    20:00 +29°C° 0 mm 5 mps 665 mmHg 16%
    21:00 +28°C° 0 mm 5 mps 665 mmHg 18%
    22:00 +27°C° 0 mm 5 mps 665 mmHg 21%
    23:00 +26°C° 0 mm 6 mps 665 mmHg 23%

    26 Mayo, Sábado

    Tiempo Temperatura Precipitaciones Viento Presión Humedad
    00:00 +24°C° 0 mm 6 mps 665 mmHg 26%
    01:00 +25°C° 0 mm 5 mps 664 mmHg 27%
    02:00 +23°C° 0 mm 5 mps 664 mmHg 28%
    03:00 +23°C° 0 mm 4 mps 664 mmHg 29%
    04:00 +24°C° 0 mm 3 mps 664 mmHg 30%
    05:00 +24°C° 0 mm 3 mps 664 mmHg 31%
    06:00 +24°C° 0 mm 3 mps 665 mmHg 33%
    07:00 +25°C° 0 mm 4 mps 665 mmHg 30%
    08:00 +27°C° 0 mm 5 mps 666 mmHg 28%
    09:00 +28°C° 0 mm 6 mps 666 mmHg 25%
    10:00 +29°C° 0 mm 7 mps 666 mmHg 24%
    11:00 +32°C° 0 mm 8 mps 666 mmHg 22%
    12:00 +33°C° 0 mm 9 mps 666 mmHg 21%
    13:00 +34°C° 0 mm 9 mps 666 mmHg 20%
    14:00 +34°C° 0 mm 9 mps 666 mmHg 19%
    15:00 +35°C° 0 mm 9 mps 666 mmHg 18%
    16:00 +34°C° 0,1 mm 8 mps 665 mmHg 20%
    17:00 +33°C° 0,1 mm 7 mps 665 mmHg 22%
    18:00 +32°C° 0,1 mm 6 mps 665 mmHg 23%
    19:00 +29°C° 1,1 mm 7 mps 666 mmHg 30%
    20:00 +28°C° 1,1 mm 7 mps 666 mmHg 36%
    21:00 +26°C° 1,1 mm 8 mps 667 mmHg 42%
    22:00 +24°C° 1,3 mm 6 mps 667 mmHg 44%
    23:00 +23°C° 1,3 mm 4 mps 667 mmHg 46%

    27 Mayo, Domingo

    Tiempo Temperatura Precipitaciones Viento Presión Humedad
    00:00 +24°C° 1,3 mm 2 mps 666 mmHg 47%
    01:00 +23°C° 0,2 mm 2 mps 666 mmHg 50%
    02:00 +23°C° 0,2 mm 2 mps 666 mmHg 52%
    03:00 +21°C° 0,2 mm 2 mps 665 mmHg 54%
    04:00 +22°C° 0 mm 3 mps 665 mmHg 52%
    05:00 +22°C° 0 mm 4 mps 665 mmHg 50%
    06:00 +22°C° 0 mm 4 mps 666 mmHg 49%
    07:00 +24°C° 0,1 mm 6 mps 666 mmHg 42%
    08:00 +27°C° 0,1 mm 8 mps 666 mmHg 36%
    09:00 +28°C° 0,1 mm 9 mps 666 mmHg 29%
    10:00 +29°C° 0 mm 10 mps 666 mmHg 27%
    11:00 +32°C° 0 mm 10 mps 666 mmHg 25%
    12:00 +33°C° 0 mm 10 mps 666 mmHg 23%
    13:00 +34°C° 0 mm 10 mps 666 mmHg 21%
    14:00 +34°C° 0 mm 10 mps 665 mmHg 19%
    15:00 +36°C° 0 mm 10 mps 665 mmHg 17%
    16:00 +34°C° 0 mm 9 mps 665 mmHg 19%
    17:00 +34°C° 0 mm 8 mps 665 mmHg 20%
    18:00 +33°C° 0 mm 7 mps 665 mmHg 21%
    19:00 +30°C° 0,4 mm 5 mps 664 mmHg 28%
    20:00 +28°C° 0,4 mm 4 mps 664 mmHg 36%
    21:00 +26°C° 0,4 mm 3 mps 664 mmHg 43%
    22:00 +26°C° 0,1 mm 3 mps 664 mmHg 45%
    23:00 +25°C° 0,1 mm 3 mps 664 mmHg 47%

    28 Mayo, Lunes

    Tiempo Temperatura Precipitaciones Viento Presión Humedad
    00:00 +23°C° 0,1 mm 4 mps 664 mmHg 50%
    01:00 +22°C° 0 mm 3 mps 663 mmHg 52%
    02:00 +21°C° 0 mm 3 mps 663 mmHg 55%
    03:00 +21°C° 0 mm 3 mps 662 mmHg 58%
    04:00 +20°C° 0,1 mm 3 mps 662 mmHg 59%
    05:00 +20°C° 0,1 mm 4 mps 662 mmHg 59%
    06:00 +20°C° 0,1 mm 4 mps 662 mmHg 60%
    07:00 +21°C° 0 mm 4 mps 663 mmHg 54%
    08:00 +22°C° 0 mm 4 mps 663 mmHg 47%
    09:00 +25°C° 0 mm 4 mps 663 mmHg 41%
    10:00 +26°C° 0 mm 4 mps 663 mmHg 38%
    11:00 +27°C° 0 mm 4 mps 663 mmHg 34%
    12:00 +29°C° 0 mm 5 mps 664 mmHg 31%
    13:00 +30°C° 0 mm 5 mps 663 mmHg 28%
    14:00 +32°C° 0 mm 6 mps 663 mmHg 25%
    15:00 +33°C° 0 mm 6 mps 663 mmHg 23%
    16:00 +30°C° 0 mm 6 mps 662 mmHg 28%
    17:00 +28°C° 0 mm 7 mps 662 mmHg 34%
    18:00 +27°C° 0 mm 8 mps 662 mmHg 39%
    19:00 +26°C° 0 mm 7 mps 662 mmHg 45%
    20:00 +23°C° 0 mm 7 mps 662 mmHg 50%
    21:00 +22°C° 0 mm 6 mps 662 mmHg 55%
    22:00 +21°C° 0 mm 6 mps 662 mmHg 58%
    23:00 +21°C° 0 mm 6 mps 662 mmHg 62%
    Mostrar más